This is the latest recevied weather packets stored in our database for station/object JS1SZZ-13. If no packets are shown the sender has not sent any weather packets the latest 10 day(s).
| Time | Temp. | Humidity | Pressure | Rain* | Wind** | Luminosity | Snow |
|---|---|---|---|---|---|---|---|
| 1787871458 | 20.56° C | 91% | 1009.4 hPa | 0 mm | - | - | - |
| 1787870559 | 19.44° C | 92% | 1009 hPa | 0 mm | - | - | - |
| 1787869658 | 18.89° C | 93% | 1009.3 hPa | 0 mm | - | - | - |
| 1787868758 | 18.89° C | 93% | 1009 hPa | 0 mm | - | - | - |
| 1787867858 | 17.78° C | 94% | 1008.8 hPa | 0 mm | - | - | - |
| 1787866960 | 17.78° C | 94% | 1008.8 hPa | 0 mm | - | - | - |
| 1787866059 | 17.78° C | 94% | 1008.8 hPa | 0 mm | - | - | - |
| 1787865158 | 17.78° C | 94% | 1008.8 hPa | 0 mm | - | - | - |
| 1787864260 | 17.78° C | 94% | 1008.9 hPa | 0 mm | - | - | - |
| 1787863359 | 17.78° C | 94% | 1008.7 hPa | 0 mm | - | - | - |
| 1787862458 | 17.78° C | 94% | 1008.7 hPa | 0 mm | - | - | - |
| 1787861559 | 17.78° C | 94% | 1008.9 hPa | 0 mm | - | - | - |
| 1787860658 | 17.78° C | 94% | 1008.7 hPa | 0 mm | - | - | - |
| 1787859759 | 17.78° C | 94% | 1009 hPa | 0 mm | - | - | - |
| 1787858859 | 17.78° C | 94% | 1009 hPa | 0 mm | - | - | - |
| 1787857958 | 18.33° C | 94% | 1009.1 hPa | 0 mm | - | - | - |
| 1787857058 | 17.78° C | 94% | 1009.2 hPa | 0 mm | - | - | - |
| 1787856160 | 17.78° C | 94% | 1009 hPa | 0 mm | - | - | - |
| 1787855259 | 17.78° C | 94% | 1008.8 hPa | 0 mm | - | - | - |
| 1787854358 | 17.78° C | 94% | 1008.9 hPa | 0 mm | - | - | - |
| 1787853458 | 17.78° C | 94% | 1008.9 hPa | 0 mm | - | - | - |
| 1787852559 | 17.78° C | 94% | 1009.2 hPa | 0 mm | - | - | - |
| 1787851659 | 18.33° C | 94% | 1008.9 hPa | 0 mm | - | - | - |
| 1787850758 | 18.33° C | 94% | 1008.8 hPa | 0 mm | - | - | - |
| 1787849859 | 18.33° C | 94% | 1008.5 hPa | 0 mm | - | - | - |
* Rain latest hour (hover to see other rain measurements)
** Current wind speed in m/s (hover to see current wind gust speed)